BAW5CA CYYZ-EGLL

Flight info

Callsign BAW5CA
Flight time N/A
Altitude 33000
Route VERDO7 IPTOS Q921 AGLUK DCT CEFOU DCT TUDEP/M085F330 DCT 52N050W 54N040W 56N030W 57N020W DCT PIKIL/N0489F330 DCT SOVED DCT NIBOG DCT NIPIT DCT BOFUM Q37 MALUD Q38 NUGRA NUGRA1H
Aircraft A35K/H-SDE2E3GHIJ3J4J5LM1ORWXY/LB1D1

Departure

Time 2026-05-06 11:05
Airport Toronto Pearson International Airport (CYYZ)

Arrival

Time N/A
Airport London Heathrow Airport (EGLL)
Time Latitude Longitude Altitude Speed Heading
2026-05-06 10:14 43.68165 -79.61975 567 ft 0 kts 343°
2026-05-06 10:32 43.68165 -79.61974 567 ft 0 kts 343°
2026-05-06 10:48 43.68148 -79.61968 568 ft 4 kts 346°
2026-05-06 10:48 43.68125 -79.61957 574 ft 4 kts 330°
2026-05-06 10:48 43.68108 -79.61934 574 ft 4 kts 280°
2026-05-06 10:49 43.68111 -79.61900 575 ft 4 kts 244°
2026-05-06 10:49 43.68125 -79.61869 577 ft 4 kts 228°
2026-05-06 10:49 43.68128 -79.61863 571 ft 0 kts 226°
2026-05-06 10:54 43.68127 -79.61864 567 ft 1 kts 226°
2026-05-06 10:54 43.68111 -79.61888 575 ft 4 kts 226°
2026-05-06 10:54 43.68089 -79.61920 575 ft 5 kts 226°
2026-05-06 10:55 43.68065 -79.61955 574 ft 5 kts 226°
2026-05-06 10:55 43.68035 -79.61983 576 ft 5 kts 202°
2026-05-06 10:55 43.67984 -79.62010 575 ft 10 kts 212°
2026-05-06 10:55 43.67928 -79.62064 573 ft 10 kts 193°
2026-05-06 10:56 43.67872 -79.62035 574 ft 8 kts 140°
2026-05-06 10:56 43.67831 -79.61983 574 ft 8 kts 137°
2026-05-06 10:56 43.67793 -79.61935 575 ft 7 kts 137°
2026-05-06 10:56 43.67758 -79.61890 572 ft 7 kts 137°
2026-05-06 10:57 43.67725 -79.61846 577 ft 6 kts 136°
2026-05-06 10:57 43.67688 -79.61798 574 ft 9 kts 136°
2026-05-06 10:57 43.67634 -79.61726 575 ft 12 kts 136°
2026-05-06 10:57 43.67577 -79.61651 574 ft 11 kts 136°
2026-05-06 10:58 43.67523 -79.61581 571 ft 10 kts 138°
2026-05-06 10:58 43.67463 -79.61504 575 ft 13 kts 137°
2026-05-06 10:58 43.67393 -79.61413 574 ft 14 kts 136°
2026-05-06 10:58 43.67325 -79.61322 573 ft 13 kts 136°
2026-05-06 10:59 43.67259 -79.61236 573 ft 13 kts 136°
2026-05-06 10:59 43.67195 -79.61154 571 ft 12 kts 143°
2026-05-06 10:59 43.67137 -79.61172 574 ft 7 kts 225°
2026-05-06 10:59 43.67102 -79.61222 576 ft 9 kts 226°
2026-05-06 11:00 43.67054 -79.61292 576 ft 10 kts 226°
2026-05-06 11:00 43.66991 -79.61383 575 ft 16 kts 226°
2026-05-06 11:00 43.66911 -79.61499 577 ft 18 kts 226°
2026-05-06 11:00 43.66825 -79.61622 574 ft 18 kts 226°
2026-05-06 11:01 43.66741 -79.61745 573 ft 18 kts 226°
2026-05-06 11:01 43.66655 -79.61868 573 ft 18 kts 226°
2026-05-06 11:01 43.66572 -79.61989 574 ft 18 kts 226°
2026-05-06 11:01 43.66499 -79.62122 572 ft 17 kts 255°
2026-05-06 11:02 43.66473 -79.62257 575 ft 14 kts 225°
2026-05-06 11:02 43.66400 -79.62349 574 ft 15 kts 222°
2026-05-06 11:02 43.66320 -79.62449 573 ft 17 kts 222°
2026-05-06 11:02 43.66229 -79.62492 567 ft 12 kts 166°
2026-05-06 11:03 43.66169 -79.62429 573 ft 10 kts 139°
2026-05-06 11:03 43.66126 -79.62377 573 ft 7 kts 137°
2026-05-06 11:03 43.66114 -79.62347 576 ft 1 kts 88°
2026-05-06 11:03 43.66117 -79.62331 576 ft 3 kts 79°
2026-05-06 11:04 43.66124 -79.62316 575 ft 0 kts 47°
2026-05-06 11:04 43.66161 -79.62259 577 ft 34 kts 47°
2026-05-06 11:04 43.66517 -79.61741 574 ft 113 kts 46°
2026-05-06 11:05 43.67219 -79.60722 582 ft 178 kts 49°
2026-05-06 11:05 43.68073 -79.59506 1449 ft 173 kts 48°
2026-05-06 11:05 43.68930 -79.58283 2171 ft 183 kts 49°
2026-05-06 11:05 43.69825 -79.56972 2525 ft 192 kts 49°
2026-05-06 11:06 43.70747 -79.55570 2845 ft 203 kts 52°
2026-05-06 11:06 43.71397 -79.53774 3068 ft 217 kts 80°
2026-05-06 11:06 43.71265 -79.51687 3389 ft 225 kts 109°
2026-05-06 11:06 43.70733 -79.49575 3671 ft 240 kts 111°
2026-05-06 11:07 43.70145 -79.47341 4016 ft 254 kts 110°
2026-05-06 11:07 43.69558 -79.44969 4367 ft 267 kts 108°
2026-05-06 11:07 43.69020 -79.42498 4967 ft 269 kts 105°
2026-05-06 11:07 43.68488 -79.39993 5548 ft 275 kts 108°
2026-05-06 11:08 43.67864 -79.37459 6111 ft 282 kts 110°
2026-05-06 11:08 43.67181 -79.34872 6643 ft 291 kts 110°
2026-05-06 11:08 43.66566 -79.32189 7318 ft 294 kts 108°
2026-05-06 11:08 43.65970 -79.29471 7980 ft 298 kts 110°
2026-05-06 11:09 43.65353 -79.26726 8662 ft 302 kts 111°
2026-05-06 11:09 43.64865 -79.23883 9321 ft 310 kts 98°
2026-05-06 11:09 43.65146 -79.20897 9875 ft 321 kts 71°
2026-05-06 11:09 43.66029 -79.18033 10438 ft 326 kts 65°
2026-05-06 11:10 43.66989 -79.15215 10995 ft 330 kts 65°
2026-05-06 11:10 43.67967 -79.12321 11566 ft 335 kts 66°
2026-05-06 11:10 43.68949 -79.09380 12138 ft 339 kts 66°
2026-05-06 11:10 43.69934 -79.06403 12714 ft 343 kts 66°
2026-05-06 11:11 43.70888 -79.03360 13280 ft 347 kts 71°
2026-05-06 11:11 43.71684 -79.00194 13826 ft 351 kts 73°
2026-05-06 11:11 43.72440 -78.96969 14339 ft 354 kts 74°
2026-05-06 11:11 43.73197 -78.93712 14856 ft 358 kts 73°
2026-05-06 11:12 43.73965 -78.90412 15347 ft 362 kts 73°
2026-05-06 11:12 43.74740 -78.87088 15837 ft 365 kts 73°
2026-05-06 11:12 43.75525 -78.83718 16321 ft 368 kts 73°
2026-05-06 11:12 43.76303 -78.80375 16770 ft 372 kts 73°
2026-05-06 11:13 43.77140 -78.76980 17220 ft 375 kts 69°
2026-05-06 11:13 43.78194 -78.73660 17711 ft 378 kts 64°
2026-05-06 11:13 43.79334 -78.70361 18178 ft 381 kts 63°
2026-05-06 11:13 43.80492 -78.67040 18557 ft 385 kts 64°
2026-05-06 11:14 43.81661 -78.63676 18951 ft 389 kts 64°
2026-05-06 11:14 43.82835 -78.60289 19347 ft 392 kts 64°
2026-05-06 11:14 43.84018 -78.56865 19752 ft 396 kts 64°
2026-05-06 11:14 43.85213 -78.53402 20153 ft 400 kts 64°
2026-05-06 11:15 43.86422 -78.49893 20411 ft 409 kts 64°
2026-05-06 11:15 43.87661 -78.46291 20603 ft 419 kts 64°
2026-05-06 11:15 43.88930 -78.42597 20829 ft 429 kts 64°
2026-05-06 11:15 43.90228 -78.38812 21015 ft 440 kts 64°
2026-05-06 11:16 43.91559 -78.34926 21229 ft 450 kts 64°
2026-05-06 11:16 43.92915 -78.30961 21444 ft 460 kts 65°
2026-05-06 11:16 43.94304 -78.26892 21658 ft 471 kts 65°
2026-05-06 11:16 43.95716 -78.22750 21898 ft 481 kts 65°
2026-05-06 11:17 43.97159 -78.18513 22100 ft 491 kts 65°
2026-05-06 11:17 43.98633 -78.14177 22331 ft 500 kts 65°
2026-05-06 11:17 44.00111 -78.09818 22586 ft 510 kts 64°
2026-05-06 11:17 44.01636 -78.05318 22805 ft 519 kts 64°
2026-05-06 11:18 44.03185 -78.00738 23085 ft 527 kts 64°
2026-05-06 11:18 44.04751 -77.96100 23466 ft 533 kts 64°
2026-05-06 11:18 44.06336 -77.91400 23771 ft 538 kts 65°
2026-05-06 11:18 44.07932 -77.86656 24149 ft 542 kts 65°
2026-05-06 11:19 44.09532 -77.81891 24559 ft 546 kts 65°
2026-05-06 11:19 44.11145 -77.77080 24971 ft 549 kts 65°
2026-05-06 11:19 44.12761 -77.72250 25373 ft 552 kts 65°
2026-05-06 11:19 44.14386 -77.67384 25764 ft 555 kts 65°
2026-05-06 11:20 44.16017 -77.62492 26127 ft 559 kts 65°
2026-05-06 11:20 44.17637 -77.57625 26457 ft 562 kts 65°
2026-05-06 11:20 44.19323 -77.52685 26795 ft 566 kts 62°
2026-05-06 11:20 44.21404 -77.48018 27132 ft 568 kts 52°
2026-05-06 11:21 44.23825 -77.43660 27495 ft 570 kts 49°
2026-05-06 11:21 44.26320 -77.39332 27835 ft 573 kts 49°
2026-05-06 11:21 44.28827 -77.34987 28190 ft 576 kts 49°
2026-05-06 11:21 44.31344 -77.30608 28558 ft 579 kts 49°
2026-05-06 11:22 44.33864 -77.26208 28934 ft 580 kts 49°
2026-05-06 11:22 44.36380 -77.21804 29407 ft 579 kts 49°
2026-05-06 11:22 44.38892 -77.17399 29822 ft 579 kts 49°
2026-05-06 11:22 44.41406 -77.12982 30177 ft 580 kts 49°
2026-05-06 11:23 44.43885 -77.08619 30539 ft 579 kts 49°
2026-05-06 11:23 44.46389 -77.04206 30957 ft 578 kts 50°
2026-05-06 11:23 44.48880 -76.99806 31373 ft 576 kts 50°
2026-05-06 11:23 44.51368 -76.95406 31745 ft 575 kts 50°
2026-05-06 11:24 44.53849 -76.91013 32103 ft 574 kts 50°
2026-05-06 11:24 44.56328 -76.86618 32426 ft 574 kts 50°
2026-05-06 11:24 44.58806 -76.82215 32730 ft 574 kts 50°
2026-05-06 11:24 44.61280 -76.77815 32885 ft 576 kts 50°
2026-05-06 11:25 44.63768 -76.73383 32900 ft 578 kts 50°
2026-05-06 11:25 44.68745 -76.64494 32863 ft 578 kts 50°
2026-05-06 11:26 44.73687 -76.55642 32891 ft 579 kts 50°
2026-05-06 11:26 44.78658 -76.46707 32910 ft 579 kts 51°
2026-05-06 11:27 44.83608 -76.37783 33341 ft 574 kts 51°
2026-05-06 11:27 44.86058 -76.33355 33758 ft 572 kts 51°
2026-05-06 11:27 44.88506 -76.28927 33877 ft 575 kts 51°
2026-05-06 11:28 44.92778 -76.19396 33891 ft 575 kts 70°
2026-05-06 11:28 44.95591 -76.08831 33885 ft 575 kts 73°
2026-05-06 11:29 44.98115 -75.98198 33886 ft 574 kts 74°
2026-05-06 11:29 45.00642 -75.87486 33886 ft 574 kts 73°
2026-05-06 11:30 45.03206 -75.76775 33887 ft 574 kts 73°
2026-05-06 11:30 45.05777 -75.66078 33871 ft 575 kts 73°
2026-05-06 11:31 45.08344 -75.55352 33881 ft 576 kts 73°
2026-05-06 11:31 45.10902 -75.44608 33879 ft 575 kts 73°
2026-05-06 11:32 45.13432 -75.33922 33880 ft 575 kts 73°
2026-05-06 11:32 45.15543 -75.24965 33875 ft 575 kts 73°
2026-05-06 11:33 45.18067 -75.14200 33879 ft 577 kts 73°
2026-05-06 11:33 45.20591 -75.03391 33877 ft 577 kts 73°
2026-05-06 11:34 45.23105 -74.92575 33876 ft 576 kts 74°
2026-05-06 11:34 45.26641 -74.82396 33874 ft 576 kts 52°
2026-05-06 11:35 45.31857 -74.73786 33868 ft 575 kts 44°
2026-05-06 11:35 45.37376 -74.65526 33875 ft 575 kts 43°
2026-05-06 11:36 45.42897 -74.57348 33881 ft 576 kts 43°
2026-05-06 11:36 45.48417 -74.49067 33881 ft 576 kts 44°
2026-05-06 11:37 45.53913 -74.40743 33882 ft 577 kts 44°
2026-05-06 11:37 45.59420 -74.32364 33887 ft 579 kts 44°
2026-05-06 11:38 45.64898 -74.24006 33888 ft 579 kts 44°
2026-05-06 11:38 45.70430 -74.15543 33888 ft 579 kts 44°
2026-05-06 11:39 45.75918 -74.07119 33880 ft 578 kts 44°
2026-05-06 11:39 45.81352 -73.98756 33889 ft 577 kts 44°
2026-05-06 11:40 45.86823 -73.90312 33883 ft 578 kts 44°
2026-05-06 11:40 45.92297 -73.81837 33880 ft 579 kts 44°
2026-05-06 11:41 45.97767 -73.73340 33878 ft 579 kts 45°
2026-05-06 11:41 46.03234 -73.64819 33889 ft 580 kts 45°
2026-05-06 11:42 46.08711 -73.56257 33878 ft 582 kts 45°
2026-05-06 11:42 46.14152 -73.47724 33872 ft 582 kts 45°
2026-05-06 11:43 46.19589 -73.39039 33868 ft 584 kts 50°
2026-05-06 11:43 46.23966 -73.29121 33876 ft 587 kts 60°
2026-05-06 11:44 46.29862 -73.13589 33870 ft 587 kts 62°
2026-05-06 11:44 46.33722 -73.03173 33890 ft 588 kts 62°
2026-05-06 11:45 46.37607 -72.92725 33883 ft 589 kts 62°
2026-05-06 11:45 46.41481 -72.82318 33861 ft 589 kts 62°
2026-05-06 11:46 46.45356 -72.71875 33876 ft 588 kts 62°
2026-05-06 11:46 46.49247 -72.61344 33865 ft 589 kts 62°
2026-05-06 11:47 46.53091 -72.50899 33862 ft 591 kts 62°
2026-05-06 11:47 46.56956 -72.40351 33862 ft 591 kts 62°
2026-05-06 11:48 46.60810 -72.29792 33860 ft 590 kts 62°
2026-05-06 11:48 46.64658 -72.19208 33865 ft 591 kts 62°
2026-05-06 11:49 46.68494 -72.08619 33867 ft 592 kts 62°
2026-05-06 11:49 46.72336 -71.97970 33863 ft 592 kts 62°
2026-05-06 11:50 46.76141 -71.87378 33863 ft 592 kts 62°
2026-05-06 11:50 46.79969 -71.76680 33853 ft 594 kts 62°
2026-05-06 11:51 46.83775 -71.66002 33863 ft 593 kts 62°
2026-05-06 11:51 46.87580 -71.55284 33864 ft 593 kts 62°
2026-05-06 11:52 46.91366 -71.44576 33857 ft 593 kts 62°
2026-05-06 11:52 46.95138 -71.33862 33864 ft 595 kts 62°
2026-05-06 11:53 46.98922 -71.23069 33814 ft 595 kts 62°
2026-05-06 11:53 47.02683 -71.12300 33865 ft 592 kts 62°
2026-05-06 11:54 47.06432 -71.01528 33914 ft 592 kts 62°
2026-05-06 11:54 47.10150 -70.90799 33856 ft 593 kts 62°
2026-05-06 11:55 47.13883 -70.79965 33853 ft 593 kts 62°
2026-05-06 11:55 47.17600 -70.69148 33855 ft 593 kts 62°
2026-05-06 11:56 47.21295 -70.58354 33839 ft 592 kts 62°
2026-05-06 11:56 47.24987 -70.47517 33835 ft 591 kts 62°
2026-05-06 11:57 47.28646 -70.36732 33848 ft 591 kts 62°
2026-05-06 11:57 47.32330 -70.25830 33832 ft 591 kts 62°
2026-05-06 11:58 47.35962 -70.15037 33848 ft 591 kts 62°
2026-05-06 11:58 47.39598 -70.04183 33832 ft 590 kts 62°
2026-05-06 11:59 47.43228 -69.93305 33838 ft 590 kts 62°
2026-05-06 11:59 47.46843 -69.82425 33840 ft 590 kts 62°
2026-05-06 12:00 47.50449 -69.71531 33967 ft 587 kts 62°
2026-05-06 12:00 47.52231 -69.66124 34445 ft 580 kts 62°
2026-05-06 12:00 47.53968 -69.60839 34945 ft 573 kts 62°
2026-05-06 12:01 47.55702 -69.55556 35334 ft 569 kts 62°
2026-05-06 12:01 47.57428 -69.50288 35565 ft 567 kts 62°
2026-05-06 12:01 47.59146 -69.45039 35834 ft 565 kts 62°
2026-05-06 12:01 47.60856 -69.39799 36086 ft 563 kts 62°
2026-05-06 12:02 47.62557 -69.34581 36296 ft 562 kts 62°
2026-05-06 12:02 47.64253 -69.29367 36535 ft 560 kts 63°
2026-05-06 12:02 47.65938 -69.24175 36793 ft 558 kts 63°
2026-05-06 12:02 47.67623 -69.18974 36857 ft 560 kts 63°
2026-05-06 12:03 47.71008 -69.08492 36856 ft 565 kts 63°
2026-05-06 12:03 47.74371 -68.98027 36861 ft 564 kts 63°
2026-05-06 12:04 47.77631 -68.87427 36876 ft 565 kts 65°
2026-05-06 12:04 47.80816 -68.76771 36867 ft 562 kts 65°
2026-05-06 12:05 47.83998 -68.66136 36870 ft 562 kts 65°
2026-05-06 12:05 47.87185 -68.55505 36873 ft 562 kts 65°
2026-05-06 12:06 47.90366 -68.44869 36876 ft 562 kts 65°
2026-05-06 12:06 47.93519 -68.34280 36874 ft 561 kts 65°
2026-05-06 12:07 47.96676 -68.23630 36872 ft 560 kts 65°
2026-05-06 12:07 47.99808 -68.13020 36873 ft 558 kts 65°
2026-05-06 12:08 48.02934 -68.02382 36874 ft 558 kts 65°
2026-05-06 12:08 48.06047 -67.91742 36877 ft 558 kts 66°
2026-05-06 12:09 48.09132 -67.81150 36871 ft 559 kts 66°
2026-05-06 12:09 48.12229 -67.70467 36869 ft 559 kts 66°
2026-05-06 12:10 48.15319 -67.59766 36870 ft 560 kts 66°
2026-05-06 12:10 48.18396 -67.49061 36888 ft 560 kts 66°
2026-05-06 12:11 48.21472 -67.38314 36868 ft 559 kts 66°
2026-05-06 12:11 48.24532 -67.27573 36870 ft 560 kts 66°
2026-05-06 12:12 48.27561 -67.16892 36865 ft 559 kts 66°
2026-05-06 12:12 48.30605 -67.06115 36859 ft 559 kts 67°
2026-05-06 12:13 48.33632 -66.95351 36864 ft 557 kts 67°
2026-05-06 12:13 48.36638 -66.84603 36869 ft 557 kts 67°
2026-05-06 12:14 48.39621 -66.73894 36864 ft 557 kts 67°
2026-05-06 12:14 48.42608 -66.63118 36865 ft 557 kts 67°
2026-05-06 12:15 48.45568 -66.52403 36875 ft 557 kts 68°
2026-05-06 12:15 48.48535 -66.41609 36860 ft 556 kts 68°
2026-05-06 12:16 48.51488 -66.30814 36862 ft 555 kts 68°
2026-05-06 12:16 48.54407 -66.20085 36860 ft 555 kts 68°
2026-05-06 12:17 48.57334 -66.09286 36860 ft 555 kts 68°
2026-05-06 12:17 48.60257 -65.98453 36851 ft 555 kts 68°
2026-05-06 12:18 48.63153 -65.87676 36858 ft 555 kts 68°
2026-05-06 12:18 48.65562 -65.78671 36853 ft 553 kts 69°
2026-05-06 12:19 48.68915 -65.66076 36858 ft 552 kts 69°
2026-05-06 12:19 48.71288 -65.57114 36852 ft 552 kts 69°
2026-05-06 12:20 48.74610 -65.44515 36850 ft 553 kts 69°
2026-05-06 12:20 48.76982 -65.35481 36848 ft 552 kts 69°
2026-05-06 12:21 48.79819 -65.24630 36849 ft 552 kts 69°
2026-05-06 12:21 48.82638 -65.13795 36846 ft 550 kts 69°
2026-05-06 12:22 48.85425 -65.03027 36855 ft 551 kts 70°
2026-05-06 12:22 48.88224 -64.92160 36841 ft 551 kts 70°
2026-05-06 12:23 48.91005 -64.81314 36852 ft 551 kts 70°
2026-05-06 12:23 48.93769 -64.70483 36853 ft 552 kts 70°
2026-05-06 12:24 48.96545 -64.59556 36837 ft 552 kts 70°
2026-05-06 12:24 48.99285 -64.48715 36866 ft 551 kts 70°
2026-05-06 12:25 49.02033 -64.37793 36866 ft 551 kts 70°
2026-05-06 12:25 49.04758 -64.26909 36868 ft 551 kts 70°
2026-05-06 12:26 49.07484 -64.15964 36870 ft 551 kts 70°
2026-05-06 12:26 49.10198 -64.05023 36884 ft 552 kts 71°
2026-05-06 12:27 49.12895 -63.94091 36838 ft 552 kts 71°
2026-05-06 12:27 49.15591 -63.83108 36886 ft 550 kts 71°
2026-05-06 12:28 49.18270 -63.72141 36894 ft 549 kts 71°
2026-05-06 12:28 49.20921 -63.61235 36889 ft 550 kts 71°
2026-05-06 12:29 49.23579 -63.50244 36891 ft 550 kts 71°
2026-05-06 12:29 49.26210 -63.39310 36893 ft 550 kts 71°
2026-05-06 12:30 49.28847 -63.28296 36869 ft 550 kts 71°
2026-05-06 12:30 49.31472 -63.17283 36893 ft 548 kts 71°
2026-05-06 12:31 49.34070 -63.06325 36896 ft 548 kts 72°
2026-05-06 12:31 49.36658 -62.95351 36895 ft 549 kts 72°
2026-05-06 12:32 49.39251 -62.84301 36899 ft 549 kts 72°
2026-05-06 12:32 49.41816 -62.73311 36902 ft 549 kts 72°
2026-05-06 12:33 49.44386 -62.62245 36873 ft 548 kts 72°
2026-05-06 12:33 49.46942 -62.51187 36885 ft 547 kts 72°
2026-05-06 12:34 49.49467 -62.40206 36894 ft 547 kts 72°
2026-05-06 12:34 49.52002 -62.29118 36895 ft 548 kts 72°